Weather History for Riverside March, CA

Change the Weather History Date:

Saturday, February 23, 2013

  Actual Average Record
Temperature  
Mean Temperature 45 °F -  
Max Temperature 61 °F 62 °F 82 °F (2012)
Min Temperature 29 °F 40 °F 29 °F (2013)
Degree Days  
Heating Degree Days 20    
Moisture  
Dew Point 36 °F    
Average Humidity 70    
Maximum Humidity 99    
Minimum Humidity 41    
Precipitation  
Precipitation 0.00 in - - ()
Sea Level Pressure  
Sea Level Pressure 30.03 in    
Wind  
Wind Speed 3 mph (WNW)    
Max Wind Speed 16 mph    
Max Gust Speed 18 mph    
Visibility 10 miles    
Events      
Averages and records for this station are not official NWS values.
T = Trace of Precipitation, MM = Missing Value Source: NWS Daily Summary

Daily Weather History Graph

Daily Weather History Graph

Search for Another Location

Airport:

Trip Planner

Search our weather history database for the weather conditions in past years. The results will help you decide how hot, cold, wet, or windy it might be!

Date:

Astronomy

Feb. 23, 2013 Rise Set
Actual Time 6:24 AM PST 5:40 PM PST
Civil Twilight 5:59 AM PST 6:05 PM PST
Nautical Twilight 5:30 AM PST 6:34 PM PST
Astronomical Twilight 5:01 AM PST 7:03 PM PST
Moon 3:58 PM PST (2/23) 4:46 AM PST (2/23)
Length of Visible Light 12h 06m
Length of Day
11h 16m
Waxing Gibbous, 96% of the Moon is Illuminated
Feb 23
Waxing Gibbous
Feb 25
Full
Mar 4
Last Quarter
Mar 11
New
Mar 19
First Quarter

Hourly Weather History & Observations

Time (PST) Temp. Windchill Dew Point Humidity Pressure Visibility Wind Dir Wind Speed Gust Speed Precip Events Conditions
12:58 AM 35.1 °F - 32.5 °F 91% 30.16 in 10.0 mi Calm Calm - N/A   Clear
1:58 AM 32.7 °F 29.6 °F 32.0 °F 97% 30.15 in 10.0 mi NW 3.5 mph - N/A   Clear
2:58 AM 33.6 °F 30.6 °F 33.3 °F 99% 30.13 in 10.0 mi SSW 3.5 mph - N/A   Clear
3:58 AM 32.7 °F - 32.4 °F 99% 30.11 in 10.0 mi Calm Calm - N/A   Clear
4:58 AM 32.5 °F - 32.2 °F 99% 30.12 in 10.0 mi Calm Calm - N/A   Clear
5:58 AM 30.0 °F - 29.7 °F 99% 30.11 in 10.0 mi South 2.3 mph - N/A   Clear
6:58 AM 29.8 °F - 29.5 °F 99% 30.12 in 10.0 mi Calm Calm - N/A   Partly Cloudy
7:58 AM 39.6 °F - 37.2 °F 91% 30.13 in 10.0 mi Calm Calm - N/A   Partly Cloudy
8:58 AM 46.9 °F - 40.6 °F 79% 30.11 in 10.0 mi ESE 1.2 mph - N/A   Scattered Clouds
9:58 AM 52.7 °F - 40.5 °F 63% 30.10 in 10.0 mi East 2.3 mph - N/A   Scattered Clouds
10:58 AM 57.9 °F - 38.8 °F 49% 30.08 in 10.0 mi Variable 1.2 mph - N/A   Partly Cloudy
11:58 AM 59.4 °F - 36.7 °F 43% 30.04 in 10.0 mi Variable 2.3 mph - N/A   Partly Cloudy
12:58 PM 60.6 °F - 36.9 °F 41% 30.01 in 10.0 mi NNW 9.2 mph - N/A   Partly Cloudy
1:58 PM 61.5 °F - 38.3 °F 42% 29.98 in 10.0 mi WNW 6.9 mph - N/A   Clear
2:58 PM 61.3 °F - 40.5 °F 46% 29.94 in 10.0 mi NW 10.4 mph - N/A   Clear
3:58 PM 60.6 °F - 40.5 °F 47% 29.92 in 10.0 mi NW 6.9 mph - N/A   Clear
4:58 PM 57.6 °F - 41.5 °F 55% 29.91 in 10.0 mi WNW 6.9 mph - N/A   Clear
5:58 PM 51.3 °F - 40.1 °F 66% 29.93 in 10.0 mi NW 11.5 mph - N/A   Clear
6:58 PM 51.8 °F - 40.8 °F 66% 29.94 in 10.0 mi Variable 3.5 mph - N/A   Clear
7:58 PM 45.0 °F 42.6 °F 40.8 °F 85% 29.97 in 10.0 mi West 4.6 mph - N/A   Clear
8:58 PM 45.3 °F 44.0 °F 35.8 °F 69% 29.98 in 10.0 mi South 3.5 mph - N/A   Clear
9:58 PM 41.2 °F 39.2 °F 35.6 °F 81% 29.97 in 10.0 mi SSW 3.5 mph - N/A   Clear
10:58 PM 47.8 °F - 36.3 °F 64% 29.96 in 10.0 mi NW 10.4 mph 18.4 mph N/A   Clear
11:45 PM 51.8 °F - 28.4 °F 41% 29.96 in 10.0 mi NNE 16.1 mph - N/A   Clear
11:58 PM 50.7 °F - 30.9 °F 47% 29.96 in 10.0 mi North 13.8 mph - N/A   Clear